Weather Roundup
Issued by NWS

Home | Current Version | Previous Version | Graphics & Text | Print | Product List | Glossary Off
Versions: 1 2 3 4 5 6 7 8 9 10 11 12 13 14 15 16 17 18 19 20 21 22 23 24 25 26 27 28 29 30 31 32 33 34 35 36 37 38 39 40 41 42 43 44 45 46 47 48 49 50

433
NZUS93 KARX 250110
HRRWXR

CURRENT HOURLY OBSERVATIONS ACROSS
MUCH OF THE UPPER MISSISSIPPI VALLEY
NATIONAL WEATHER SERVICE LA CROSSE WI
700 PM CST FRI FEB 24 2017


...SOUTHEAST MINNESOTA...


CITY           SKY/WX    TMP DP  RH WIND       PRES   REMARKS
ROCHESTER      FOG       20  18  92 N20G29    29.77R VSB 1   WCI   4
ROCHESTER/MAYO   N/A     21  21  98 NW8G18    29.79R WCI  12
WINONA         LGT SNOW  23  21  93 NW13      29.79R WCI  11
AUSTIN           N/A     21  18  86 N12G21    29.79R WCI   9
ALBERT LEA     CLOUDY    21  16  79 N14G20    29.80R WCI   8
DODGE CENTER   NOT AVBL
PRESTON          N/A     20  17  86 N20G31    29.74R WCI   5
OWATONNA       MOCLDY    21  14  73 NW15      29.82R WCI   8
FARIBAULT      CLOUDY    23  14  68 NW13      29.84R WCI  11
$$

...ELSEWHERE IN MINNESOTA...


CITY           SKY/WX    TMP DP  RH WIND       PRES   REMARKS
MINNEAPOLIS    CLOUDY    24  11  57 N18       29.87R WCI  10
INTNL FALLS    CLEAR     16   3  56 N13       29.96S WCI   2
DULUTH         CLOUDY    18   8  65 N10       29.85R WCI   6
RED WING       CLOUDY    25  10  54 N9G20     29.83R WCI  15
REDWOOD FALLS  CLOUDY    25  12  58 NW15G25   29.93R WCI  13
MANKATO          N/A     23  14  68 N23       29.87R WCI   7
WORTHINGTON    CLOUDY    22  17  81 N28G36    29.92R WCI   4
FAIRMONT       FLURRIES  22  15  75 N23       29.87R WCI   6
$$

...SOUTHWEST WISCONSIN...


CITY           SKY/WX    TMP DP  RH WIND       PRES   REMARKS
LA CROSSE      LGT SNOW  26  21  81 N18       29.74R WCI  13
PRAIRIE DU CHI LGT SNOW  28  26  89 N12       29.71R WCI  18
BOSCOBEL       LGT SNOW  29  24  82 N7        29.69S WCI  22
LONE ROCK      MIX PCPN  28  24  85 N14       29.67R FOG     WCI  17
PLATTEVILLE    CLOUDY    29  29 100 N8        29.65R WCI  21
FORT MC COY    LGT SNOW  25  22  89 N8        29.72R WCI  16
CAMP DOUGLAS   MIX PCPN  25  21  86 NW7       29.68R WCI  17
MAUSTON-NEW LI CLOUDY    26  23  89 NW8       29.66R WCI  17
VIROQUA        CLOUDY    25  24  95 N9        29.67R WCI  15
WIS DELLS      MIX PCPN  26  25  95 N6        29.64R WCI  19
$$

...ELSEWHERE IN WISCONSIN...


CITY           SKY/WX    TMP DP  RH WIND       PRES   REMARKS
MILWAUKEE      DRIZZLE   33  30  88 NW10      29.54R FOG     WCI  25
MADISON        FRZ DRZL  27  24  89 N15       29.62R FOG     WCI  15
GREEN BAY      LGT SNOW  26  25  96 N15G29    29.59S FOG     WCI  14
EAU CLAIRE     LGT SNOW  20  15  81 N13       29.79R WCI   7
BLACK RVR FLS  LGT SNOW  24  19  82 N10G23    29.72R WCI  14
MEDFORD        LGT SNOW  18  14  83 N15G25    29.67S WCI   4
WAUSAU         FLURRIES  20  14  77 N16G24    29.65R WCI   6
WIS RAPIDS     LGT SNOW  23  20  88 N15       29.67R FOG     WCI  10
MARSHFIELD     LGT SNOW  20  15  81 N14       29.66R WCI   7
RICE LAKE      LGT SNOW  19  11  70 N9        29.83R WCI   9
$$

...NORTHEAST IOWA...


CITY           SKY/WX    TMP DP  RH WIND       PRES   REMARKS
WATERLOO       LGT SNOW  25  21  85 N22       29.76R FOG     WCI  10
DUBUQUE        CLOUDY    28  26  92 N12       29.65R FOG     WCI  18
DECORAH        LGT SNOW  23  21  93 N14G20    29.71R WCI  11
MASON CITY     LGT SNOW  22  20  92 N17       29.81R FOG     WCI   8
CHARLES CITY   LGT SNOW  23  23 100 N21G26    29.77R VSB 3/4 WCI   8
OELWEIN        LGT SNOW  25  25 100 N18G32    29.72R WCI  11
$$

...ELSEWHERE IN IOWA...


CITY           SKY/WX    TMP DP  RH WIND       PRES   REMARKS
DES MOINES     LGT SNOW  25  21  85 NW13G30   29.84R FOG     WCI  14
IOWA CITY      LGT SNOW  32  29  88 NW12      29.70R FOG     WCI  23
FORT DODGE     CLOUDY    21  16  79 NW8       29.86R WCI  12
MARSHALLTOWN   LGT SNOW  24  22  91 NW18G28   29.77R FOG     WCI  10
CEDAR RAPIDS   LGT SNOW  29  29 100 N18G29    29.68R FOG     WCI  16
$$

...NORTHERN ILLINOIS...


CITY           SKY/WX    TMP DP  RH WIND       PRES   REMARKS
CHICAGO-OHARE  DRIZZLE   39  36  89 W9        29.53S FOG     WCI  33
CHICAGO-MIDWAY CLOUDY    42  36  79 W14       29.54R HAZE
MOLINE         CLOUDY    36  32  85 NW8       29.64R FOG     WCI  30
ROCKFORD       FRZ DRZL  32  29  88 N15       29.62R FOG     WCI  22
PEORIA         CLOUDY    41  36  82 W15       29.63R
$$

NOTE: "FAIR" INDICATES FEW OR NO CLOUDS BELOW 12,000 FEET WITH NO
SIGNIFICANT WEATHER AND/OR OBSTRUCTIONS TO VISIBILITY. WIND
SPEEDS ARE IN MILES-PER-HOUR.




USA.gov is the U.S. government's official web portal to all federal, state and local government web resources and services.